Torna al catalogo

STARLINK-30775

AttivoComunicazioniVLEO
NORAD 58139·PAYLOAD·🇺🇸 United States

Lanciato Oct 22, 2023 da Cape Canaveral Space Force Station

Loading…

Prossimi Passaggi (prossime 24 ore)

TLE

AggiornatoSource: CelesTrak SupGP

Epoca: Sep 14, 2026, 22:07 UTC

1 58139C 23162X   26257.92201389 -.00002633  00000+0 -95334-4 0  2576
2 58139  43.0017 143.4581 0001327 267.7027  25.1916 15.27588134    12

Traccia STARLINK-30775 in tempo reale con AllMySat

Download on the App Store